This is the latest recevied weather packets stored in our database for station/object SQ5LTL-2. If no packets are shown the sender has not sent any weather packets the latest 1 day(s).
| Time | Temp. | Humidity | Pressure | Rain* | Wind** | Luminosity | Snow |
|---|---|---|---|---|---|---|---|
| 1836274691 | 13.33° C | 99% | 1025.9 hPa | 0 mm | 0.89 m/s, 208° | 0 W/m² | - |
| 1836274544 | 13.33° C | 99% | 1025.9 hPa | 0 mm | 0.45 m/s, 162° | 0 W/m² | - |
| 1836274390 | 12.78° C | 99% | 1025.9 hPa | 0 mm | 0.45 m/s, 216° | 0 W/m² | - |
| 1836274242 | 13.33° C | 99% | 1025.9 hPa | 0 mm | 0.89 m/s, 210° | 0 W/m² | - |
| 1836274109 | 13.33° C | 99% | 1025.8 hPa | 0 mm | 0 m/s | 0 W/m² | - |
| 1778028623 | 13.89° C | 60% | 1007.6 hPa | 0 mm | 0.45 m/s, 195° | 0 W/m² | - |
| 1778028323 | 13.89° C | 59% | 1007.7 hPa | 0 mm | 0 m/s | 0 W/m² | - |
| 1778028020 | 13.89° C | 59% | 1007.6 hPa | 0 mm | 0.45 m/s, 201° | 0 W/m² | - |
| 1778027718 | 13.89° C | 59% | 1007.7 hPa | 0 mm | 0 m/s | 0 W/m² | - |
| 1778027418 | 13.89° C | 58% | 1007.8 hPa | 0 mm | 0.45 m/s, 198° | 0 W/m² | - |
| 1778027116 | 13.89° C | 58% | 1007.6 hPa | 0 mm | 0.45 m/s, 205° | 0 W/m² | - |
| 1778026834 | 13.89° C | 58% | 1007.7 hPa | 0 mm | 0.45 m/s, 216° | 0 W/m² | - |
| 1778026532 | 13.89° C | 58% | 1007.7 hPa | 0 mm | 0.45 m/s, 209° | 0 W/m² | - |
| 1778026232 | 13.89° C | 58% | 1007.7 hPa | 0 mm | 0.45 m/s, 203° | 0 W/m² | - |
| 1778025930 | 13.89° C | 59% | 1007.6 hPa | 0 mm | 0.45 m/s, 211° | 0 W/m² | - |
| 1778025629 | 13.89° C | 59% | 1007.7 hPa | 0 mm | 0 m/s | 0 W/m² | - |
| 1778025328 | 13.89° C | 58% | 1007.7 hPa | 0 mm | 0.45 m/s, 205° | 0 W/m² | - |
| 1778025027 | 14.44° C | 58% | 1007.8 hPa | 0 mm | 0.45 m/s, 204° | 0 W/m² | - |
| 1778024724 | 14.44° C | 57% | 1007.8 hPa | 0 mm | 0.45 m/s, 200° | 0 W/m² | - |
| 1778024423 | 14.44° C | 57% | 1007.7 hPa | 0 mm | 0.45 m/s, 215° | 0 W/m² | - |
| 1778024122 | 14.44° C | 57% | 1007.7 hPa | 0 mm | 0.89 m/s, 206° | 0 W/m² | - |
| 1778023820 | 13.89° C | 58% | 1007.7 hPa | 0 mm | 0.45 m/s, 212° | 0 W/m² | - |
| 1778023518 | 13.89° C | 58% | 1007.7 hPa | 0 mm | 0.45 m/s, 208° | 0 W/m² | - |
| 1778023218 | 13.33° C | 60% | 1007.7 hPa | 0 mm | 0.45 m/s, 208° | 0 W/m² | - |
| 1778022935 | 12.78° C | 62% | 1007.9 hPa | 0 mm | 0 m/s | 0 W/m² | - |
* Rain latest hour (hover to see other rain measurements)
** Current wind speed in m/s (hover to see current wind gust speed)